GW5948 Weather Reports


Display with metric or nautical units.
time (UTC)temp
F
wind
direction
speed
MPH
gust
MPH
rain 1hr
in
rain 24hr
in
rain mn
in
humidity
%
barometer
mb
20260507064020 65 109 8.0 14.0 0.00 0.00 0.00 50 1013.8
20260507063019 64 118 9.0 15.0 0.00 0.00 0.00 49 1013.8
20260507062021 64 118 6.0 13.0 0.00 0.00 0.00 50 1013.8
20260507061020 63 120 7.0 17.0 0.00 0.00 0.00 51 1013.9
20260507060059 62 117 9.0 18.0 0.00 0.00 0.00 52 1013.9
20260507055019 62 114 7.0 14.0 0.00 0.00 0.00 54 1013.8
20260507054019 61 118 6.0 13.0 0.00 0.00 0.00 56 1013.8
20260507053040 60 113 6.0 10.0 0.00 0.00 0.00 58 1013.9
20260507052100 59 104 6.0 11.0 0.00 0.00 0.00 58 1013.7
20260507051020 59 106 6.0 10.0 0.00 0.00 0.00 58 1013.7
20260507050022 58 118 6.0 11.0 0.00 0.00 0.00 58 1013.5
20260507045040 58 112 5.0 10.0 0.00 0.00 0.00 60 1013.6
20260507044039 57 92 5.0 9.0 0.00 0.00 0.00 61 1013.4
20260507043023 56 109 6.0 11.0 0.00 0.00 0.00 61 1013.3
20260507042040 56 105 7.0 11.0 0.00 0.00 0.00 61 1013.2
20260507041023 55 105 6.0 10.0 0.00 0.00 0.00 62 1013.2
20260507040018 54 78 6.0 10.0 0.00 0.00 0.00 63 1013.1
20260507035020 54 106 7.0 11.0 0.00 0.00 0.00 63 1013.0
20260507034021 54 99 7.0 10.0 0.00 0.00 0.00 62 1013.1
20260507033023 54 104 6.0 12.0 0.00 0.00 0.00 62 1013.1
20260507032021 55 105 7.0 10.0 0.00 0.00 0.00 58 1013.1
20260507031019 55 105 6.0 9.0 0.00 0.00 0.00 56 1013.0
20260507030022 55 85 5.0 10.0 0.00 0.00 0.00 55 1013.0
20260507025048 56 108 5.0 7.0 0.00 0.00 0.00 54 1012.9
20260507024021 56 128 5.0 9.0 0.00 0.00 0.00 53 1012.9
20260507023040 57 134 4.0 10.0 0.00 0.00 0.00 52 1012.9
20260507022020 57 133 6.0 10.0 0.00 0.00 0.00 51 1012.9
20260507021019 57 126 4.0 9.0 0.00 0.00 0.00 52 1012.9
20260507020039 57 87 4.0 7.0 0.00 0.00 0.00 52 1012.9
20260507015020 58 128 5.0 9.0 0.00 0.00 0.00 51 1012.7
20260507014039 58 144 5.0 8.0 0.00 0.00 0.00 51 1012.7
20260507013021 58 160 6.0 10.0 0.00 0.00 0.00 51 1012.7
20260507012025 58 146 6.0 12.0 0.00 0.00 0.00 51 1012.7
20260507011020 58 141 6.0 12.0 0.00 0.00 0.00 51 1012.7
20260507010019 58 127 6.0 11.0 0.00 0.00 0.00 51 1012.8
20260507005039 58 129 5.0 9.0 0.00 0.00 0.00 51 1012.8
20260507004020 59 135 5.0 13.0 0.00 0.00 0.00 50 1012.7
20260507003020 59 133 5.0 9.0 0.00 0.00 0.00 49 1012.7
20260507002019 59 150 7.0 12.0 0.00 0.00 0.00 49 1012.7
20260507001040 59 149 7.0 13.0 0.00 0.00 0.00 48 1012.7
20260507000019 60 145 8.0 15.0 0.00 0.00 0.00 48 1012.7
20260506235019 60 138 7.0 14.0 0.00 0.00 0.00 48 1012.7
20260506234019 60 142 7.0 13.0 0.00 0.00 0.00 48 1012.7
20260506233020 60 149 8.0 15.0 0.00 0.00 0.00 48 1012.6
20260506232019 60 143 8.0 15.0 0.00 0.00 0.00 49 1012.7
20260506231019 61 144 9.0 15.0 0.00 0.00 0.00 49 1012.7
20260506230040 61 143 8.0 17.0 0.00 0.00 0.00 50 1012.6
20260506225020 61 140 9.0 18.0 0.00 0.00 0.00 51 1012.6
20260506224019 61 150 9.0 17.0 0.00 0.00 0.00 52 1012.7
20260506223019 61 153 8.0 16.0 0.00 0.00 0.00 53 1012.7
20260506222020 61 156 9.0 18.0 0.00 0.00 0.00 54 1012.7
20260506221020 62 144 9.0 18.0 0.00 0.00 0.00 54 1012.6
20260506220021 62 147 10.0 17.0 0.00 0.00 0.00 54 1012.6
20260506215019 62 150 9.0 17.0 0.00 0.00 0.00 53 1012.5
20260506214020 62 146 10.0 17.0 0.00 0.00 0.00 53 1012.6
20260506212020 63 147 11.0 19.0 0.00 0.00 0.00 52 1012.4
20260506211019 63 149 10.0 20.0 0.00 0.00 0.00 51 1012.4
20260506210020 64 140 12.0 20.0 0.00 0.00 0.00 51 1012.3
20260506205017 64 146 8.0 16.0 0.00 0.00 0.00 51 1012.3
20260506204037 64 134 7.0 18.0 0.00 0.00 0.00 50 1012.4
20260506203016 65 141 8.0 17.0 0.00 0.00 0.00 49 1012.3
20260506202016 65 126 9.0 17.0 0.00 0.00 0.00 48 1012.2
20260506201016 65 129 9.0 16.0 0.00 0.00 0.00 48 1012.3
20260506200016 66 150 7.0 14.0 0.00 0.00 0.00 48 1012.1
20260506195019 66 140 10.0 19.0 0.00 0.00 0.00 47 1012.0
20260506194016 66 128 8.0 16.0 0.00 0.00 0.00 47 1011.9
20260506193018 67 126 8.0 14.0 0.00 0.00 0.00 47 1011.9
20260506192037 67 133 7.0 14.0 0.00 0.00 0.00 46 1011.9
20260506191019 67 132 7.0 14.0 0.00 0.00 0.00 45 1011.8
20260506190017 68 149 8.0 19.0 0.00 0.00 0.00 45 1011.8
20260506185036 68 139 7.0 13.0 0.00 0.00 0.00 45 1011.5
20260506184017 68 144 7.0 16.0 0.00 0.00 0.00 44 1011.4
20260506183036 69 137 8.0 13.0 0.00 0.00 0.00 44 1011.3
20260506182015 69 142 8.0 17.0 0.00 0.00 0.00 44 1011.2
20260506181016 69 150 6.0 13.0 0.00 0.00 0.00 43 1011.1
20260506180017 69 156 7.0 13.0 0.00 0.00 0.00 43 1010.9
20260506175015 70 143 6.0 11.0 0.00 0.00 0.00 42 1010.9
20260506173016 71 139 5.0 9.0 0.00 0.00 0.00 40 1010.8
20260506172019 72 150 6.0 12.0 0.00 0.00 0.00 39 1010.7
20260506171019 73 153 6.0 13.0 0.00 0.00 0.00 38 1010.6
20260506170018 74 153 5.0 11.0 0.00 0.00 0.00 37 1010.6
20260506165036 75 158 7.0 16.0 0.00 0.00 0.00 36 1010.5
20260506164016 75 159 8.0 15.0 0.00 0.00 0.00 35 1010.5
20260506163019 76 160 7.0 17.0 0.00 0.00 0.00 35 1010.6
20260506162018 77 160 7.0 15.0 0.00 0.00 0.00 34 1010.4
20260506161020 77 157 6.0 11.0 0.00 0.00 0.00 34 1010.3
20260506160020 78 138 5.0 14.0 0.00 0.00 0.00 33 1010.4
20260506155019 78 143 5.0 11.0 0.00 0.00 0.00 33 1010.4
20260506154019 79 135 7.0 13.0 0.00 0.00 0.00 32 1010.4
20260506153020 79 143 7.0 14.0 0.00 0.00 0.00 31 1010.4
20260506152022 80 129 5.0 11.0 0.00 0.00 0.00 32 1010.4
20260506151020 80 168 6.0 15.0 0.00 0.00 0.00 32 1010.4
20260506150019 80 170 8.0 14.0 0.00 0.00 0.00 31 1010.4
20260506145018 80 161 6.0 13.0 0.00 0.00 0.00 31 1010.4
20260506144041 80 175 7.0 13.0 0.00 0.00 0.00 31 1010.5
20260506143019 80 171 8.0 16.0 0.00 0.00 0.00 31 1010.5
20260506142019 80 158 7.0 16.0 0.00 0.00 0.00 31 1010.6
20260506141039 81 177 8.0 15.0 0.00 0.00 0.00 31 1010.6
20260506140040 81 169 7.0 15.0 0.00 0.00 0.00 31 1010.5
20260506135039 81 176 8.0 16.0 0.00 0.00 0.00 31 1010.5
20260506134022 81 161 6.0 13.0 0.00 0.00 0.00 30 1010.6
20260506133018 81 161 7.0 12.0 0.00 0.00 0.00 31 1010.6
20260506132019 81 168 7.0 12.0 0.00 0.00 0.00 30 1010.6
20260506131019 81 183 7.0 14.0 0.00 0.00 0.00 30 1010.8
20260506130020 81 171 7.0 13.0 0.00 0.00 0.00 30 1010.7
20260506125040 81 159 6.0 13.0 0.00 0.00 0.00 30 1010.8
20260506124022 81 153 7.0 13.0 0.00 0.00 0.00 29 1010.9
20260506123102 80 172 7.0 12.0 0.00 0.00 0.00 30 1010.9
20260506122039 80 147 7.0 15.0 0.00 0.00 0.00 29 1011.1
20260506121020 0 0.0 0.0 0.00 0.00 0.00
20260506120020 0 0.0 0.0 0.00 0.00 0.00
20260506115021 0 0.0 0.0 0.00 0.00 0.00
20260506114020 80 152 8.0 13.0 0.00 0.00 0.00 27 1011.5
20260506113020 80 150 7.0 15.0 0.00 0.00 0.00 27 1011.5
20260506112021 80 149 6.0 15.0 0.00 0.00 0.00 28 1011.6
20260506111019 80 151 6.0 13.0 0.00 0.00 0.00 30 1011.6
20260506110019 80 141 7.0 15.0 0.00 0.00 0.00 32 1011.7
20260506105022 79 148 5.0 13.0 0.00 0.00 0.00 32 1011.6
20260506104023 79 142 7.0 13.0 0.00 0.00 0.00 32 1011.8
20260506103020 79 134 7.0 13.0 0.00 0.00 0.00 32 1011.8
20260506102019 79 177 7.0 14.0 0.00 0.00 0.00 33 1011.9
20260506101021 78 136 6.0 13.0 0.00 0.00 0.00 33 1012.0
20260506100021 78 138 6.0 11.0 0.00 0.00 0.00 34 1012.0
20260506095019 77 130 7.0 12.0 0.00 0.00 0.00 34 1012.1
20260506094020 76 133 7.0 13.0 0.00 0.00 0.00 35 1012.2
20260506093020 76 174 7.0 14.0 0.00 0.00 0.00 36 1012.1
20260506092020 76 127 5.0 10.0 0.00 0.00 0.00 36 1012.2
20260506091020 76 110 5.0 9.0 0.00 0.00 0.00 37 1012.3
20260506090021 74 147 6.0 10.0 0.00 0.00 0.00 38 1012.2
20260506085040 74 122 5.0 11.0 0.00 0.00 0.00 38 1012.3
20260506084019 73 141 5.0 12.0 0.00 0.00 0.00 40 1012.2
20260506083019 72 130 7.0 13.0 0.00 0.00 0.00 40 1012.2
20260506082021 71 116 7.0 13.0 0.00 0.00 0.00 41 1012.3
20260506081020 70 137 7.0 12.0 0.00 0.00 0.00 42 1012.2
20260506073021 67 119 7.0 12.0 0.00 0.00 0.00 45 1012.3
20260506072046 67 121 6.0 11.0 0.00 0.00 0.00 46 1012.3
20260506071020 66 127 6.0 11.0 0.00 0.00 0.00 46 1012.3